Total_Precipitation_Accumulation
0.56 0.60 0.52 0.39 0.28 0.41 0.56 0.56 0.47 0.42 0.45 0.53 0.56 0.63 0.65 0.44 0.32 0.26 0.25 0.41 0.46 0.44 0.48 0.50 0.48 0.44 0.42 0.35 0.27 0.23 0.20 0.20 0.18 0.13 0.12 0.17 0.21 0.16 0.11 0.07 0.06 0.02 0.01
0.68 0.63 0.57 0.45 0.41 0.47 0.51 0.44 0.36 0.38 0.40 0.41 0.35 0.33 0.35 0.33 0.31 0.21 0.15 0.20 0.31 0.32 0.36 0.44 0.50 0.49 0.53 0.51 0.42 0.33 0.27 0.23 0.19 0.15 0.09 0.08 0.14 0.16 0.17 0.20 0.28 0.09 0.02
0.55 0.55 0.48 0.42 0.45 0.41 0.37 0.32 0.26 0.22 0.21 0.19 0.12 0.09 0.09 0.10 0.10 0.08 0.07 0.06 0.12 0.22 0.27 0.33 0.39 0.42 0.46 0.55 0.54 0.41 0.30 0.24 0.19 0.15 0.11 0.09 0.07 0.07 0.11 0.15 0.19 0.09 0.04
0.28 0.28 0.25 0.25 0.23 0.22 0.23 0.18 0.14 0.10 0.09 0.07 0.05 0.03 0.03 0.03 0.04 0.04 0.04 0.03 0.04 0.10 0.26 0.35 0.39 0.38 0.42 0.51 0.56 0.45 0.30 0.23 0.17 0.14 0.13 0.10 0.09 0.06 0.05 0.08 0.08 0.06 0.03
0.14 0.14 0.13 0.12 0.11 0.12 0.13 0.09 0.06 0.05 0.03 0.03 0.02 0.02 0.02 0.02 0.03 0.03 0.03 0.04 0.04 0.05 0.09 0.16 0.28 0.32 0.38 0.46 0.58 0.64 0.48 0.30 0.19 0.17 0.18 0.18 0.14 0.09 0.07 0.09 0.08 0.05 0.05
0.09 0.06 0.04 0.03 0.02 0.02 0.03 0.05 0.06 0.06 0.04 0.04 0.03 0.02 0.03 0.02 0.02 0.06 0.06 0.03 0.03 0.04 0.06 0.07 0.14 0.20 0.29 0.39 0.49 0.55 0.53 0.44 0.31 0.23 0.23 0.22 0.18 0.09 0.03 0.02 0.03 0.04 0.05
0.06 0.04 0.01 0.00 0.00 0.00 0.00 0.00 0.01 0.02 0.02 0.03 0.04 0.02 0.02 0.02 0.03 0.06 0.06 0.02 0.04 0.11 0.15 0.11 0.12 0.23 0.29 0.30 0.29 0.33 0.41 0.47 0.42 0.35 0.31 0.30 0.28 0.18 0.06 0.02 0.01 0.02 0.04
0.05 0.04 0.01 0.00 0.00 0.00 0.00 0.00 0.00 0.00 0.00 0.00 0.01 0.01 0.00 0.00 0.01 0.03 0.06 0.07 0.08 0.15 0.19 0.18 0.20 0.24 0.24 0.25 0.26 0.23 0.30 0.34 0.39 0.41 0.38 0.34 0.34 0.28 0.19 0.09 0.04 0.03 0.03
0.04 0.03 0.02 0.01 0.00 0.00 0.00 0.00 0.00 0.01 0.00 0.00 0.00 0.01 0.01 0.00 0.00 0.02 0.06 0.09 0.11 0.14 0.14 0.17 0.18 0.18 0.22 0.21 0.20 0.19 0.23 0.24 0.32 0.45 0.49 0.44 0.39 0.39 0.37 0.30 0.19 0.11 0.08
0.06 0.04 0.03 0.02 0.01 0.00 0.00 0.00 0.00 0.01 0.01 0.01 0.01 0.01 0.02 0.03 0.04 0.03 0.05 0.11 0.14 0.13 0.12 0.12 0.11 0.14 0.19 0.20 0.22 0.22 0.19 0.20 0.29 0.46 0.53 0.52 0.49 0.46 0.48 0.51 0.56 0.49 0.33
0.12 0.08 0.06 0.06 0.05 0.02 0.01 0.00 0.01 0.01 0.02 0.02 0.03 0.03 0.03 0.04 0.08 0.10 0.05 0.07 0.13 0.08 0.06 0.05 0.04 0.07 0.11 0.17 0.24 0.27 0.22 0.26 0.32 0.41 0.46 0.49 0.51 0.53 0.56 0.59 0.73 0.82 0.79
0.24 0.20 0.17 0.17 0.18 0.12 0.06 0.03 0.02 0.02 0.03 0.04 0.06 0.06 0.05 0.04 0.05 0.10 0.10 0.09 0.08 0.03 0.04 0.07 0.08 0.11 0.15 0.26 0.30 0.26 0.30 0.34 0.35 0.37 0.40 0.41 0.42 0.45 0.54 0.63 0.71 0.80 0.87
0.26 0.26 0.24 0.26 0.27 0.24 0.18 0.10 0.05 0.03 0.03 0.04 0.05 0.04 0.04 0.04 0.05 0.08 0.08 0.07 0.06 0.07 0.10 0.12 0.16 0.23 0.31 0.46 0.38 0.35 0.34 0.35 0.35 0.37 0.37 0.36 0.36 0.37 0.39 0.48 0.57 0.65 0.74
0.29 0.26 0.23 0.23 0.23 0.24 0.22 0.17 0.10 0.06 0.04 0.04 0.03 0.07 0.11 0.08 0.09 0.07 0.06 0.07 0.09 0.13 0.17 0.17 0.23 0.35 0.50 0.57 0.54 0.38 0.23 0.17 0.14 0.15 0.16 0.19 0.21 0.22 0.26 0.30 0.36 0.43 0.49
0.26 0.24 0.21 0.19 0.18 0.20 0.21 0.19 0.14 0.09 0.05 0.03 0.03 0.08 0.14 0.14 0.13 0.13 0.13 0.15 0.21 0.17 0.21 0.30 0.37 0.45 0.45 0.48 0.40 0.30 0.12 0.08 0.08 0.07 0.06 0.08 0.09 0.10 0.12 0.14 0.15 0.20 0.27
0.21 0.19 0.16 0.13 0.12 0.13 0.14 0.15 0.14 0.13 0.10 0.08 0.08 0.10 0.15 0.18 0.17 0.19 0.21 0.24 0.31 0.29 0.28 0.35 0.43 0.45 0.36 0.26 0.19 0.19 0.12 0.08 0.06 0.05 0.04 0.03 0.03 0.04 0.03 0.04 0.04 0.04 0.07
0.19 0.17 0.15 0.12 0.10 0.10 0.12 0.13 0.14 0.15 0.14 0.12 0.09 0.09 0.13 0.19 0.21 0.22 0.26 0.29 0.31 0.36 0.32 0.30 0.36 0.32 0.27 0.18 0.13 0.11 0.07 0.05 0.04 0.04 0.03 0.02 0.01 0.02 0.02 0.01 0.01 0.01 0.01
0.19 0.19 0.17 0.14 0.10 0.08 0.09 0.09 0.11 0.14 0.18 0.17 0.15 0.14 0.12 0.13 0.15 0.14 0.15 0.21 0.28 0.38 0.39 0.25 0.21 0.22 0.21 0.18 0.15 0.12 0.09 0.05 0.04 0.06 0.05 0.03 0.01 0.01 0.01 0.01 0.01 0.01 0.01
0.13 0.16 0.16 0.14 0.11 0.10 0.08 0.06 0.07 0.09 0.13 0.15 0.17 0.21 0.19 0.17 0.14 0.06 0.03 0.06 0.15 0.30 0.38 0.28 0.21 0.22 0.21 0.18 0.15 0.12 0.10 0.07 0.04 0.04 0.04 0.03 0.02 0.01 0.00 0.00 0.00 0.00 0.00
0.06 0.10 0.13 0.14 0.13 0.11 0.09 0.08 0.07 0.07 0.07 0.09 0.14 0.17 0.16 0.16 0.15 0.09 0.03 0.02 0.08 0.17 0.23 0.25 0.29 0.38 0.34 0.23 0.15 0.13 0.11 0.08 0.05 0.03 0.02 0.01 0.00 0.00 0.00 0.00 0.00 0.00 0.00
0.04 0.08 0.13 0.14 0.13 0.11 0.09 0.09 0.09 0.07 0.07 0.07 0.09 0.12 0.10 0.10 0.09 0.07 0.04 0.04 0.07 0.12 0.21 0.28 0.44 0.70 0.66 0.46 0.26 0.14 0.11 0.09 0.06 0.03 0.02 0.01 0.00 0.00 0.00 0.00 0.00 0.00 0.00
0.04 0.06 0.10 0.13 0.12 0.11 0.09 0.07 0.07 0.08 0.09 0.09 0.11 0.11 0.09 0.07 0.07 0.06 0.05 0.04 0.04 0.07 0.17 0.30 0.47 0.63 0.66 0.55 0.36 0.21 0.11 0.07 0.08 0.07 0.04 0.02 0.01 0.00 0.00 0.00 0.00 0.00 0.00
0.05 0.06 0.07 0.11 0.12 0.13 0.12 0.07 0.06 0.08 0.09 0.11 0.13 0.14 0.11 0.07 0.06 0.06 0.05 0.04 0.03 0.03 0.07 0.15 0.32 0.49 0.55 0.50 0.35 0.23 0.14 0.10 0.08 0.06 0.04 0.02 0.00 0.00 0.00 0.00 0.00 0.00 0.00
0.07 0.06 0.06 0.08 0.11 0.15 0.17 0.13 0.09 0.08 0.11 0.12 0.13 0.13 0.12 0.09 0.06 0.04 0.04 0.03 0.02 0.02 0.04 0.08 0.17 0.28 0.33 0.31 0.26 0.22 0.19 0.16 0.12 0.09 0.04 0.03 0.01 0.00 0.00 0.00 0.00 0.00 0.00
0.09 0.06 0.05 0.05 0.09 0.14 0.17 0.16 0.14 0.10 0.11 0.14 0.15 0.16 0.15 0.11 0.08 0.06 0.03 0.02 0.02 0.02 0.04 0.06 0.10 0.15 0.18 0.19 0.17 0.18 0.19 0.15 0.14 0.11 0.04 0.02 0.01 0.01 0.01 0.01 0.00 0.00 0.00
0.11 0.08 0.05 0.04 0.06 0.14 0.19 0.18 0.17 0.13 0.13 0.16 0.21 0.23 0.22 0.17 0.12 0.08 0.05 0.03 0.02 0.01 0.01 0.02 0.05 0.09 0.11 0.13 0.14 0.11 0.10 0.09 0.07 0.07 0.04 0.02 0.01 0.03 0.04 0.01 0.00 0.00 0.00